Regional Weather Roundup
Issued by NWS

Home | Current Version | Previous Version | Graphics & Text | Print | Product List | Glossary On
Versions: 1 2 3 4 5 6 7 8 9 10 11 12 13 14 15 16 17 18 19 20 21 22 23 24 25 26 27 28 29 30 31 32 33 34 35 36 37 38 39 40 41 42 43 44 45 46 47 48 49 50
000
ASUS43 KTOP 221759
RWRKS

WEATHER ROUNDUP FOR KANSAS
NATIONAL WEATHER SERVICE GOODLAND KS
100 PM CDT SUN OCT 22 2017

NOTE:  "FAIR" INDICATES FEW OR NO CLOUDS BELOW 12,000 FEET WITH NO
SIGNIFICANT WEATHER AND/OR OBSTRUCTIONS TO VISIBILITY.

KSZ001>006-013>018-027>032-041>047-221900-
NORTHWEST KANSAS

CITY           SKY/WX    TMP DP  RH WIND       PRES   REMARKS
GOODLAND       SUNNY     63  16  16 SW22G29   30.16F
6HR MIN TEMP:  33; 6HR MAX TEMP:  63;

HAYS           SUNNY     67  23  19 W14       30.18F
HILL CITY      SUNNY     67  23  19 W9        30.17F
6HR MIN TEMP:  31; 6HR MAX TEMP:  67;

RUSSELL        SUNNY     67  29  24 SW16      30.16F
6HR MIN TEMP:  31; 6HR MAX TEMP:  67;

$$

KSZ061>065-074>080-084>089-221900-
SOUTHWEST KANSAS

CITY           SKY/WX    TMP DP  RH WIND       PRES   REMARKS
DODGE CITY     SUNNY     66  17  15 W10       30.21F
6HR MIN TEMP:  31; 6HR MAX TEMP:  66;

ELKHART          N/A     61  22  22 SW10        N/A
GARDEN CITY    SUNNY     65  17  15 SW14G20   30.21F
6HR MIN TEMP:  26; 6HR MAX TEMP:  65;

GREAT BEND     SUNNY     66  30  26 SW10      30.18F
LIBERAL        SUNNY     65  20  17 SW14G20   30.24F
$$

KSZ066>073-081>083-090>101-221900-
SOUTHEAST KANSAS

CITY           SKY/WX    TMP DP  RH WIND       PRES   REMARKS
CHANUTE        CLOUDY    65  44  46 NW16      30.16F
6HR MIN TEMP:  48; 6HR MAX TEMP:  65;

COFFEYVILLE    MOSUNNY   64  45  49 N12       30.15F
6HR MIN TEMP:  50; 6HR MAX TEMP:  65;

HUTCHINSON     SUNNY     66  32  28 SW12      30.18F
6HR MIN TEMP:  39; 6HR MAX TEMP:  66;

MEDICINE LODGE   N/A     66  32  28 VRB3      30.19F
NEWTON         SUNNY     66  39  37 W8        30.19F
PARSONS        MOSUNNY   64  44  48 NW14      30.16F
6HR MIN TEMP:  49; 6HR MAX TEMP:  64; 6HR PCP: TRACE;

WICHITA INTL   SUNNY     66  38  35 VRB5      30.19F
6HR MIN TEMP:  45; 6HR MAX TEMP:  66;

WICHITA JABRA  SUNNY     64  39  39 CALM      30.18F
6HR MIN TEMP:  44; 6HR MAX TEMP:  65;

WICHITA MCCONL SUNNY     65  38  37 NW9       30.19F
WINFIELD       SUNNY     65  42  43 N7        30.21F
6HR MIN TEMP:  44; 6HR MAX TEMP:  65;

$$

KSZ007>012-019>026-033>040-048>060-102>105-221900-
NORTHEAST KANSAS

CITY           SKY/WX    TMP DP  RH WIND       PRES   REMARKS
CONCORDIA      SUNNY     66  30  26 W12       30.14F
6HR MIN TEMP:  39; 6HR MAX TEMP:  66;

EMPORIA        SUNNY     64  38  38 W7G20     30.17F
6HR MIN TEMP:  43; 6HR MAX TEMP:  65;

LAWRENCE       CLOUDY    63  48  58 NW13      30.14F
6HR MIN TEMP:  45; 6HR MAX TEMP:  63;

MANHATTAN      SUNNY     67  38  34 S5        30.15F
6HR MIN TEMP:  40; 6HR MAX TEMP:  68;

OLATHE IND     CLOUDY    60  46  59 NW10      30.14F
6HR MIN TEMP:  48; 6HR MAX TEMP:  60;

OLATHE EXE     CLOUDY    60  44  55 NW8       30.14F
6HR MIN TEMP:  47; 6HR MAX TEMP:  60;

SALINA         SUNNY     68  33  27 W6        30.17F
6HR MIN TEMP:  39; 6HR MAX TEMP:  68;

TOPEKA BILLARD SUNNY     64  46  52 W8        30.14F
6HR MIN TEMP:  46; 6HR MAX TEMP:  65;

TOPEKA FORBES  SUNNY     65  42  43 NW10      30.15F
6HR MIN TEMP:  45; 6HR MAX TEMP:  65;

$$




USA.gov is the U.S. government's official web portal to all federal, state and local government web resources and services.